Location: Newark
(52.0167°N, 6.1333°E)
Time: 17:30:49
(UTC+00:00)

Envisat - Visible Passes

Search period start: 17 October 2019 00:00
Search period end: 27 October 2019 00:00
Orbit: 764 x 766 km, 98.1° (Epoch: 17 October)

Date Brightness Start Highest point End Pass type
(mag) Time Alt. Az. Time Alt. Az. Time Alt. Az.
17 Oct 3.4 17:44:20 10° S 17:49:23 67° WSW 17:54:28 10° NNW visible
17 Oct 6.3 19:28:07 10° W 19:29:24 11° W 19:30:42 10° WNW visible
18 Oct 3.0 17:07:35 10° SSE 17:12:37 65° ENE 17:17:40 10° N visible
18 Oct 5.5 18:48:13 10° SW 18:52:06 22° W 18:56:01 10° NW visible
19 Oct 6.2 05:12:02 10° NE 05:14:58 15° E 05:17:53 10° ESE visible
19 Oct 4.4 18:10:12 10° SSW 18:15:00 41° W 18:19:50 10° NNW visible
20 Oct 3.1 17:33:00 10° SSE 17:38:06 81° WSW 17:43:13 10° NNW visible
20 Oct 6.1 19:15:28 10° WSW 19:17:58 14° W 19:20:28 10° NW visible
21 Oct 5.8 05:36:42 10° NE 05:40:49 24° E 05:44:54 10° SE visible
21 Oct 3.1 16:56:27 10° SE 17:01:23 54° ENE 17:06:20 10° N visible
21 Oct 5.2 18:36:29 10° SSW 18:40:43 26° W 18:44:59 10° NW visible
22 Oct 6.4 05:01:29 10° ENE 05:03:32 12° E 05:05:34 10° ESE visible
22 Oct 4.0 17:58:44 10° S 18:03:40 50° W 18:08:39 10° NNW visible
23 Oct 3.0 17:21:44 10° SSE 17:26:49 84° ENE 17:31:57 10° NNW visible
23 Oct 5.9 19:03:20 10° SW 19:06:32 17° W 19:09:45 10° NW visible
24 Oct 6.0 05:25:42 10° NE 05:29:25 20° E 05:33:06 10° SE visible
24 Oct 4.9 18:24:50 10° SSW 18:29:21 32° W 18:33:54 10° NNW visible
25 Oct 3.6 17:47:20 10° S 17:52:22 62° WSW 17:57:25 10° NNW visible
26 Oct 3.0 17:10:32 10° SSE 17:15:34 70° ENE 17:20:39 10° N visible
26 Oct 5.6 18:51:25 10° SW 18:55:07 20° W 18:58:52 10° NW visible
